Starlink 34511

operational
NORAD ID: 65214 Int'l Des: 2025-176 Owner: SPXS Country: US Constellation: starlink
LEOCIRCULAR

Starlink 34511について

説明を読み込み中...

リアルタイム位置

3D地球を読み込み中...

次回通過

高度履歴

Altitude vs Time

uPlot chart will show altitude changes over time

軌道要素

1 65214U 25176S 25341.00090309 .00005827 00000-0 20860-3 0 9996
2 65214 53.1577 223.6687 0001115 75.9861 284.1264 15.30216364 18867
Epoch: Dec 7, 2025 • Age: 23 hours

現在のステータス

高度 475.2 km
速度 7.63 km/s
衛星直下点 10.52°N, 26.01°W
打ち上げ日 Aug 14, 2025
運用期間 0.3 years
タイプ internet

技術仕様

分類 Payload
質量 575.00 kg
乾燥質量 530.00 kg
総質量 575.00 kg
長さ 0.30 m
直径 4.10 m
スパン 29.00 m
形状 Box + pan
製造者 SPXS
バスタイプ Starlink V2MO
フェーズステータス In Orbit
所有者/国 SPXS/US

大規模コンステレーション

Loading constellations...